Location: Unspecified
(0.0000°N, 0.0000°E)
Time: 06:35:38
(UTC+00:00)

S-56A Canister/Altair - Pass Details

Date: 20 November 2019
Orbit: 633 x 2499 km, 38.9° (Epoch: 10 December)

Event Time Altitude Azimuth Distance (km) Brightness Sun altitude
Rises 01:49:49 0° 296° (WNW) 2,961 - -53.8°
Reaches altitude 10° 01:52:01 10° 289° (WNW) 2,129 - -53.3°
Maximum altitude 01:56:35 43° 217° (SW) 1,128 - -52.4°
Exits shadow 02:02:34 11° 148° (SSE) 2,809 10.8 -51.1°
Drops below altitude 10° 02:02:41 10° 147° (SSE) 2,854 10.8 -51.1°
Sets 02:06:06 0° 141° (SE) 4,109 11.8 -50.4°
